Location: Grasslands National Park East Block
(49.0708°N, 106.5295°W)
Time: 18:55:18
(UTC-06:00)

SR - Pass Details

Date: 22 October 2019
Orbit: 574 x 882 km, 66.7° (Epoch: 14 November)

Event Time Altitude Azimuth Distance (km) Brightness Sun altitude
Exits shadow 04:21:15 12° 346° (NNW) 2,358 ? -32.3°
Maximum altitude 04:24:11 17° 19° (NNE) 2,089 ? -31.9°
Drops below altitude 10° 04:27:50 10° 57° (ENE) 2,538 ? -31.3°
Sets 04:31:23 0° 78° (ENE) 3,484 ? -30.8°
